Content
SEND FEEDBACK

Daily
Averages
Monthly
Summary
United States of America

HARRISONBURG, VIRGINIA


Home > North America > United States > Virginia
Elevation: 1186 feet     Latitude: 38 16N     Longitude: 078 54W

WEATHER
 
SELECT A DAY
Number of Records: 456,929;   Date Range: 1/1/95 - 9/16/14
 
SHARE

PRINT THIS DATA

[ ← Previous Day ]
WEATHER ALMANAC - JANUARY 3, 2013
[ Next Day → ]
[ °C ]   °F
Weather ElementAverageHighLow
Temperature32 °F42.6 °F (3:55 pm)22.1 °F (7:55 am)
Dewpoint17.8 °F22.6 °F (2:55 am)12.6 °F (2:55 pm)
Humidity58.9 %87 % (7:55 am)30 % (2:55 pm)
Barometer30.17 in30.21 in (9:35 am)30.11 in (2:15 pm)
Wind Speed1.8 mph8.1 mph (2:15 pm)
Weather ElementAverage
Visibility10 mi
Wind DirectionENE (80.6 °)

Weather ElementTotal
Precipitation---
Heating Degree Days32.7 (Base 65)
Averaged from 68 records on January 3, 2013
WEATHER CONDITIONS BREAKOUT
WIND DIRECTION BREAKOUT
WEATHER BY HOUR - JANUARY 3, 2013
[ °C ]   °F
Local TimeTemperatureDewpointHumidityBarometerVisibilityWind DirectionWind SpeedGust SpeedPrecipitationEventsConditions
12:35 AM29.8 °F21.2 °F70 %30.17 in10.0 miCalmOvercast
12:55 AM30.7 °F20.5 °F66 %30.16 in10.0 miCalmMostly Cloudy
1:15 AM30.6 °F20.5 °F66 %30.16 in10.0 miCalmOvercast
1:35 AM29.7 °F21.9 °F73 %30.17 in10.0 miCalmOvercast
2:15 AM29.8 °F21.9 °F72 %30.18 in10.0 miCalmScattered Clouds
2:55 AM29.1 °F22.6 °F77 %30.18 in10.0 miCalmScattered Clouds
3:15 AM28.6 °F21.4 °F74 %30.17 in10.0 miCalmScattered Clouds
3:35 AM28.6 °F21.0 °F73 %30.17 in10.0 miCalmClear
3:55 AM28.4 °F21.7 °F76 %30.16 in10.0 miCalmClear
4:15 AM27.9 °F21.6 °F77 %30.16 in10.0 miCalmClear
4:35 AM27.5 °F21.0 °F77 %30.16 in10.0 miCalmScattered Clouds
4:55 AM27.7 °F18.5 °F68 %30.16 in10.0 miCalmScattered Clouds
5:15 AM26.8 °F20.8 °F78 %30.16 in10.0 miCalmClear
5:35 AM25.9 °F20.8 °F81 %30.17 in10.0 miCalmClear
5:55 AM24.6 °F19.9 °F82 %30.17 in10.0 miCalmScattered Clouds
6:15 AM23.4 °F19.4 °F85 %30.18 in10.0 miCalmMostly Cloudy
6:35 AM23.7 °F19.9 °F85 %30.19 in10.0 miCalmScattered Clouds
6:55 AM23.9 °F19.6 °F84 %30.20 in10.0 miCalmScattered Clouds
7:15 AM23.5 °F19.2 °F84 %30.20 in10.0 miCalmClear
7:35 AM22.6 °F19.0 °F86 %30.20 in10.0 miCalmClear
7:55 AM22.1 °F18.9 °F87 %30.20 in7.0 miCalmClear
8:15 AM22.3 °F18.9 °F87 %30.20 in10.0 miCalmClear
8:35 AM24.1 °F20.3 °F85 %30.20 in10.0 miCalmClear
8:55 AM26.2 °F20.1 °F78 %30.20 in10.0 miCalmClear
9:15 AM28.0 °F21.7 °F77 %30.20 in10.0 miCalmClear
9:35 AM29.3 °F20.8 °F71 %30.21 in10.0 miCalmClear
9:55 AM30.0 °F20.1 °F67 %30.20 in10.0 miCalmClear
10:35 AM31.5 °F21.2 °F66 %30.21 in10.0 miCalmClear
10:55 AM32.2 °F22.5 °F67 %30.20 in10.0 miSouth (170°)3.5 mphClear
11:15 AM33.4 °F21.7 °F62 %30.20 in10.0 miSSW (210°)3.5 mphClear
11:35 AM34.0 °F21.2 °F60 %30.18 in10.0 miCalmClear
11:55 AM35.1 °F21.9 °F59 %30.17 in10.0 miSW (220°)3.5 mphClear
12:15 PM37.0 °F20.1 °F50 %30.15 in10.0 miSSE (160°)6.9 mphClear
12:35 PM38.5 °F19.9 °F47 %30.15 in10.0 miSW (230°)3.5 mphClear
12:55 PM39.0 °F18.5 °F44 %30.13 in10.0 miSSW (210°)3.5 mphClear
1:15 PM39.2 °F16.9 °F40 %30.13 in10.0 miSSW (200°)3.5 mphClear
1:35 PM39.9 °F12.9 °F33 %30.12 in10.0 miSW (220°)3.5 mphClear
1:55 PM41.0 °F12.7 °F32 %30.12 in10.0 miSSW (210°)6.9 mphClear
2:15 PM42.1 °F13.5 °F31 %30.11 in10.0 miSSW (200°)8.1 mphClear
2:35 PM41.9 °F12.9 °F31 %30.12 in10.0 miSouth (190°)6.9 mphClear
2:55 PM41.9 °F12.6 °F30 %30.11 in10.0 miSouth (190°)4.6 mphClear
3:15 PM42.1 °F13.6 °F32 %30.12 in10.0 miSouth (180°)6.9 mphClear
3:35 PM42.3 °F13.6 °F31 %30.13 in10.0 miSSE (150°)3.5 mphClear
3:55 PM42.6 °F13.3 °F30 %30.13 in10.0 miSW (220°)6.9 mphClear
4:15 PM42.1 °F14.2 °F32 %30.13 in10.0 miSouth (190°)4.6 mphClear
4:35 PM41.0 °F15.3 °F35 %30.14 in10.0 miSouth (170°)3.5 mphClear
4:55 PM39.7 °F15.1 °F37 %30.14 in10.0 miCalmClear
5:15 PM38.5 °F14.7 °F38 %30.15 in10.0 miCalmClear
5:35 PM36.0 °F16.3 °F45 %30.15 in10.0 miSSW (200°)3.5 mphClear
5:55 PM35.4 °F17.1 °F47 %30.16 in10.0 miSouth (180°)4.6 mphClear
6:15 PM34.5 °F16.9 °F49 %30.16 in10.0 miSSE (160°)5.8 mphClear
6:35 PM35.4 °F16.0 °F45 %30.16 in10.0 miCalmClear
6:55 PM33.4 °F16.5 °F50 %30.17 in10.0 miCalmClear
7:15 PM31.8 °F16.9 °F54 %30.17 in10.0 miCalmClear
7:35 PM34.5 °F14.5 °F44 %30.17 in10.0 miCalmClear
7:55 PM34.3 °F13.5 °F42 %30.17 in10.0 miCalmClear
8:15 PM31.5 °F14.4 °F49 %30.17 in10.0 miCalmClear
8:35 PM32.4 °F14.0 °F47 %30.17 in10.0 miCalmClear
8:55 PM32.9 °F13.8 °F45 %30.17 in10.0 miWest (260°)3.5 mphClear
9:15 PM34.0 °F13.6 °F43 %30.17 in10.0 miWest (270°)3.5 mphClear
9:35 PM29.8 °F15.3 °F55 %30.19 in10.0 miWNW (290°)5.8 mphClear
9:55 PM27.1 °F16.3 °F64 %30.19 in10.0 miSSW (210°)3.5 mphClear
10:15 PM27.5 °F16.0 °F62 %30.20 in10.0 miCalmClear
10:35 PM28.2 °F15.4 °F59 %30.20 in10.0 miWest (270°)4.6 mphClear
10:55 PM31.5 °F15.6 °F52 %30.20 in10.0 miNW (320°)3.5 mphClear
11:15 PM28.0 °F16.0 °F61 %30.20 in10.0 miCalmClear
11:35 PM28.9 °F16.3 °F59 %30.19 in10.0 miCalmClear
11:55 PM28.2 °F16.7 °F62 %30.19 in10.0 miCalmClear
Hourly data recorded from KSHD, located miles away from Harrisonburg, Virginia







STORIES FROM OUR PARTNERS